Regional Weather Roundup
Issued by NWS

Home | Current Version | Previous Version | Text Only | Print | Product List | Glossary On
Versions: 1 2 3 4 5 6 7 8 9 10 11 12 13 14 15 16 17 18 19 20 21 22 23 24 25 26 27 28 29 30 31 32 33 34 35 36 37 38 39 40 41 42 43 44 45 46 47 48 49 50
000
ASUS45 KBOU 211307
RWRCO

WEATHER ROUNDUP FOR COLORADO
NATIONAL WEATHER SERVICE DENVER/BOULDER CO
600 AM MST SUN DEC 21 2014

NOTE: "FAIR" INDICATES FEW OR NO CLOUDS BELOW 12000 FEET WITH NO
SIGNIFICANT WEATHER AND/OR OBSTRUCTIONS TO VISIBILITY.

COZ001>005-013-030-031-211400-
...NORTHWEST COLORADO...

CITY           SKY/WX    TMP DP  RH WIND       PRES   REMARKS
CRAIG          FLURRIES  27  24  89 CALM      29.95S
HAYDEN         CLOUDY    25  21  86 CALM      29.94R
MEEKER         LGT SNOW  32  26  78 NW7       29.98R WCI  26
MOUNT WERNER   NOT AVBL
STEAMBOAT SPGS CLOUDY    26  25  96 E7        29.94R WCI  19
WALDEN         CLOUDY    28  21  74 SE15      29.87S WCI  17
$$

COZ006>008-011-211400-
...WEST CENTRAL VALLEYS...

CITY           SKY/WX    TMP DP  RH WIND       PRES   REMARKS
GRAND JUNCTION CLOUDY    32  30  92 CALM      30.03F
MONTROSE       CLOUDY    28  26  92 CALM      30.05S
EAGLE          CLOUDY    28  27  93 CALM      29.98F
RIFLE          MIX PCPN  30  28  92 CALM      30.03S
DELTA          CLOUDY    34  30  85 CALM      30.04F
NUCLA          CLOUDY    30  28  93 CALM      30.09R
$$

COZ017>023-064>068-211400-
...SOUTHWEST COLORADO...

CITY           SKY/WX    TMP DP  RH WIND       PRES   REMARKS
DURANGO        CLOUDY    26  26 100 E7        30.03S FOG     WCI  18
CORTEZ         CLEAR     25  23  92 E5        30.04F WCI  19
PAGOSA SPRINGS CLOUDY    28  27  98 CALM      30.02F
TELLURIDE      CLOUDY    26  23  87 CALM      30.05R
WOLF CREEK PAS SNOW      14  12  92 MISG      29.97F VSB 1/4
$$

COZ009-010-012-014-032>034-037-058>063-211400-
...CENTRAL COLORADO...

CITY           SKY/WX    TMP DP  RH WIND       PRES   REMARKS
ASPEN          CLOUDY    23  19  85 N5        29.96S WCI  17
BUENA VISTA    CLOUDY    33  14  44 W25G41    29.87R WCI  20
COPPER MTN     CLOUDY    19  14  79 W20G26    29.90F WCI   4
BERTHOUD PASS  CLOUDY    10   5  79 MISG      29.85R
COTTONWOOD PAS CLOUDY    30  14  51 NW18G38   29.87R WCI  18
GUNNISON       CLOUDY    18  12  79 CALM      30.03R
KREMMLING      CLOUDY    28  23  80 NE3       29.94S
LEADVILLE      CLOUDY    22  12  65 N14G21    29.90F WCI   9
MONARCH PASS   CLOUDY    14  12  92 MISG      30.01R
SALIDA         CLOUDY    35  16  45 N3        29.94F
SUNLIGHT       MIX PCPN N/A N/A N/A CALM      29.96F
WILKERSON PASS CLOUDY    21  10  63 W18G29    29.84F WCI   6
$$

COZ069>075-211400-
...SAN LUIS VALLEY/SANGRE DE CRISTO MOUNTAINS...

CITY           SKY/WX    TMP DP  RH WIND       PRES   REMARKS
ALAMOSA        MOCLDY     9   6  88 CALM      29.97F
LA VETA PASS   PTCLDY    19  16  86 SW10G18   29.88S WCI   8
SAGUACHE       CLOUDY    25  18  74 SE7       29.95F WCI  17
$$

COZ035-036-038>040-211400-
...NORTHERN COLORADO FRONT RANGE...

CITY           SKY/WX    TMP DP  RH WIND       PRES   REMARKS
DENVER INTL AP MOCLDY    28  21  75 S12       29.73F WCI  18
DMNS CITY PARK   N/A     30  19  64 S3G9      29.74S
AURORA         MOCLDY    31  19  59 S10       29.75F WCI  23
FRONT RANGE AP MOCLDY    32  23  69 S12       29.74F WCI  23
ERIE MUNI ARPT   N/A     22  19  90 S3        29.73F
BOULDER MUN AP CLOUDY    32  23  69 SW5       29.73F WCI  27
CENTENNIAL     CLOUDY    33  19  56 S10       29.75F WCI  25
BROOMFIELD     PTCLDY    32  19  59 CALM      29.73F
FORT COLLINS   CLOUDY    21  16  79 CALM      29.74F
LONGMONT       CLOUDY    25  20  81 CALM      29.74F
$$

COZ041-046-047-076>085-087-088-211400-
...PIKES PEAK/PALMER DIVIDE AND SOUTHERN FOOTHILLS...

CITY           SKY/WX    TMP DP  RH WIND       PRES   REMARKS
COLO. SPRINGS  MOCLDY    26  16  65 NW7       29.80F WCI  18
A. F. ACADEMY  MOCLDY    32  14  48 SE8       29.78F WCI  24
ELLICOTT       NOT AVBL
FALCON         MOCLDY    28  15  56 CALM      29.80F
FORT CARSON    MOCLDY    27  17  67 CALM      29.78F
LIMON          PTCLDY    16  13  88 N5        29.78F WCI   9
MONUMENT HILL  MOCLDY    27  16  63 SW8       29.77F WCI  18
TRINIDAD       CLEAR     29  17  61 W7        29.83F WCI  22
$$

COZ042>045-048>051-090-091-211400-
...NORTHEAST COLORADO...

CITY           SKY/WX    TMP DP  RH WIND       PRES   REMARKS
GREELEY ARPT   MOCLDY    19  10  68 E3        29.73F
AKRON          PTCLDY    25  19  78 SW9       29.75F WCI  15
BURLINGTON     CLEAR     28  23  81 SW7       29.77F WCI  21
WRAY           CLEAR     24  21  89 W6        29.76F WCI  17
STERLING       PTCLDY    18  14  86 S9        29.75F WCI   6
HOLYOKE        CLEAR     27  21  80 W9        29.75F WCI  17
FORT MORGAN    PTCLDY    19  16  86 W6        29.76F WCI  11
$$

COZ086-089-092>099-211400-
...SOUTHEAST COLORADO...

CITY           SKY/WX    TMP DP  RH WIND       PRES   REMARKS
PUEBLO         MOCLDY    20  15  81 CALM      29.79F
LA JUNTA       PTCLDY    29  21  72 SW3       29.81F
LAMAR          CLEAR     25  23  92 W7        29.80F WCI  17
SPRINGFIELD      N/A     33  23  66 NW16      29.79S WCI  23
$$


USA.gov is the U.S. government's official web portal to all federal, state and local government web resources and services.